sat.trackr.live / text

‹ back to catalog

STARLINK-1279

NORAD 45360 · 2020-019A

PAYLOAD ACTIVE UNKNOWN

§ Identity

Operator
Country
US
Launch date
2020-03-18
Launch site
AFETR
Launch vehicle
Mass (kg)
RCS (m²)

Purposes: comms

External: N2YO · Heavens-Above · Gunter

§ Orbital elements

Epoch: 2026-09-02T13:15:41.063904Z

Period
88.31 min
Inclination
53.0153°
Eccentricity
0.0002654
Mean motion
16.30679862 rev/d
Perigee alt
189.0 km
Apogee alt
192.5 km
Semi-major
6,568.9 km
B*
1.0851e-3
RAAN
292.2211°
Arg perigee
338.5791°
Mean anomaly
21.5140°
Rev number
35,861

§ Raw data

STARLINK-12791 45360U 20019A   26245.55255861  .05416568  12138-4  10851-2 0  99972 45360  53.0153 292.2211 0002654 338.5791  21.5140 16.30679862358613

JSON: /api/v1/satellites/45360 · /tle

For live sub-satellite position, see the globe view (requires WebGL).

§ Visibility from observer

Set your observer location to see the next 7 days of passes ≥ 10°. The values pass through the URL so the page stays shareable.

No JS? Fill the form by hand. The geolocation button needs JavaScript.